Regional Weather Roundup
Issued by NWS

Home | Current Version | Previous Version | Graphics & Text | Print | Product List | Glossary On
Versions: 1 2 3 4 5 6 7 8 9 10 11 12 13 14 15 16 17 18 19 20 21 22 23 24 25 26 27 28 29 30 31 32 33 34 35 36 37 38 39 40 41 42 43 44 45 46 47 48 49
000
ASUS45 KSLC 071710
RWRUT

UTAH REGIONAL WEATHER ROUNDUP
NATIONAL WEATHER SERVICE SALT LAKE CITY UT
1100 AM MDT TUE JUL 07 2015

UTZ001>011-023>025-071800-

NORTHERN UTAH

CITY           SKY/WX    TMP DP  RH WIND       PRES   REMARKS
BRIGHAM CITY   PTSUNNY   77  52  41 W5        30.07F
HILL AFB       SUNNY     77  55  45 S7        30.10F
LOGAN            N/A     73  56  54 VRB3      30.08F
OGDEN          SUNNY     79  53  40 S9        30.07F
PROVO AIRPORT  NOT AVBL
SALT LAKE CITY MOSUNNY   79  53  40 SE9       30.06F
VERNAL         PTSUNNY   71  51  49 S8        30.13F
WENDOVER       SUNNY     81  48  32 SE7       30.07F
HEBER CITY     PTSUNNY   72  48  43 CALM      30.15F
WEST JORDAN    CLOUDY    79  52  38 SE12      30.09F

$$

UTZ012>022-026-027-071800-

SOUTHERN/CENTRAL UTAH

CITY           SKY/WX    TMP DP  RH WIND       PRES   REMARKS
BLANDING       SUNNY     71  55  56 CALM      30.26S
BRYCE CANYON   CLOUDY    60  50  69 N3        30.32F
CEDAR CITY     CLOUDY    69  57  65 NE8       30.18S
DELTA          PTSUNNY   75  48  37 CALM      30.12S
HANKSVILLE     CLOUDY    68  55  64 CALM      30.15F
MILFORD        CLOUDY    75  51  43 SW14      30.13F
MOAB/CYNLANDS  PTSUNNY   74  54  49 SW5       30.10F
PRICE          PTSUNNY   65  53  65 S7        30.19F
ST GEORGE      PTSUNNY   75  57  53 W3        30.07S
KANAB          CLOUDY    70  55  60 CALM      30.23S

$$

REGIONAL REPORTS     COLORADO/ARIZONA

CITY           SKY/WX    TMP DP  RH WIND       PRES   REMARKS
CRAIG, CO      CLOUDY    63  54  72 CALM      30.21F
GRAND JUNCTION LGT RAIN  67  59  75 NW12      30.13F
RIFLE          LGT RAIN  63  57  81 NE5       30.18F
MONTROSE       PTSUNNY   72  48  42 N8        30.18F
CORTEZ         MOSUNNY   72  54  53 N8        30.20F
PAGE, AZ       NOT AVBL
GRAND CANYON   PTSUNNY   71  47  42 W12G17    30.26F
KINGMAN        SUNNY     90  48  23 VRB3      30.05F
FLAGSTAFF      SUNNY     70  45  40 VRB7      30.30F

$$

REGIONAL REPORTS    NEVADA/IDAHO/WYOMING

CITY           SKY/WX    TMP DP  RH WIND       PRES   REMARKS
LAS VEGAS, NV  MOSUNNY   88  56  33 SE5       29.93F
ELY            SUNNY     75  42  30 S6        30.19F
ELKO           SUNNY     80  45  28 VRB3      30.11F
POCATELLO, ID  MOSUNNY   77  54  44 VRB6      30.10F
BURLEY         PTSUNNY   78  53  41 E7        30.06F
EVANSTON, WY   MOSUNNY   63  52  67 N5        30.24F
ROCK SPRINGS   MOSUNNY   61  54  77 W8        30.23S
KEMMERER       MOSUNNY   64  50  59 CALM      30.26F

$$



USA.gov is the U.S. government's official web portal to all federal, state and local government web resources and services.